When you browse on this site, cookies collect data to enhance your experience and personalize the content and advertising you see.
Visit our Privacy Policy to learn more. By continuing to use the site, you agree to this use of cookies and data.
  • en Suisse
  • Liste des pays
  • À 7 jours
  • Température de l'eau
  • Carte satellitaire
  • Carte météo
  • Widgets météo
  • user-avatar
    Se connecter

    Météo par heure à Pirna

    Ce jour, 26 Mai, Dimanche

    Heure Température Précipitation Vent Pression Humidité
    00:00 +11°C° 0 mm 1 m/s 751 mmHg 94%
    01:00 +11°C° 0 mm 1 m/s 751 mmHg 94%
    02:00 +10°C° 0 mm 1 m/s 751 mmHg 94%
    03:00 +10°C° 0 mm 1 m/s 751 mmHg 94%
    04:00 +10°C° 0 mm 1 m/s 751 mmHg 94%
    05:00 +11°C° 0 mm 1 m/s 751 mmHg 89%
    06:00 +13°C° 0 mm 1 m/s 751 mmHg 85%
    07:00 +15°C° 0 mm 1 m/s 751 mmHg 80%
    08:00 +17°C° 0 mm 2 m/s 751 mmHg 73%
    09:00 +18°C° 0 mm 3 m/s 750 mmHg 67%
    10:00 +20°C° 0 mm 3 m/s 750 mmHg 60%
    11:00 +20°C° 0.1 mm 3 m/s 750 mmHg 59%
    12:00 +21°C° 0.1 mm 4 m/s 749 mmHg 58%
    13:00 +22°C° 0.1 mm 4 m/s 749 mmHg 57%
    14:00 +22°C° 0 mm 4 m/s 749 mmHg 57%
    15:00 +22°C° 0 mm 4 m/s 748 mmHg 57%
    16:00 +22°C° 0 mm 4 m/s 748 mmHg 57%
    17:00 +21°C° 0 mm 3 m/s 748 mmHg 63%
    18:00 +20°C° 0 mm 2 m/s 748 mmHg 69%
    19:00 +20°C° 0 mm 1 m/s 747 mmHg 75%
    20:00 +19°C° 0 mm 1 m/s 747 mmHg 78%
    21:00 +18°C° 0 mm 1 m/s 747 mmHg 81%
    22:00 +15°C° 0 mm 2 m/s 748 mmHg 83%
    23:00 +15°C° 0 mm 2 m/s 747 mmHg 83%

    Demain, 27 Mai, Lundi

    Heure Température Précipitation Vent Pression Humidité
    00:00 +15°C° 0 mm 2 m/s 747 mmHg 83%
    01:00 +13°C° 0 mm 3 m/s 747 mmHg 83%
    02:00 +13°C° 0 mm 3 m/s 747 mmHg 83%
    03:00 +13°C° 0 mm 3 m/s 747 mmHg 83%
    04:00 +13°C° 0 mm 3 m/s 746 mmHg 83%
    05:00 +14°C° 0 mm 3 m/s 746 mmHg 80%
    06:00 +17°C° 0 mm 3 m/s 746 mmHg 77%
    07:00 +18°C° 0 mm 4 m/s 746 mmHg 74%
    08:00 +19°C° 0 mm 4 m/s 746 mmHg 71%
    09:00 +21°C° 0 mm 4 m/s 746 mmHg 67%
    10:00 +22°C° 0 mm 4 m/s 746 mmHg 64%
    11:00 +22°C° 0.8 mm 4 m/s 746 mmHg 68%
    12:00 +21°C° 0.8 mm 4 m/s 746 mmHg 73%
    13:00 +21°C° 0.8 mm 4 m/s 746 mmHg 77%
    14:00 +21°C° 0.6 mm 3 m/s 745 mmHg 77%
    15:00 +21°C° 0.6 mm 3 m/s 745 mmHg 76%
    16:00 +21°C° 0.6 mm 2 m/s 745 mmHg 76%
    17:00 +20°C° 0.5 mm 2 m/s 745 mmHg 80%
    18:00 +19°C° 0.5 mm 2 m/s 745 mmHg 85%
    19:00 +18°C° 0.5 mm 2 m/s 744 mmHg 90%
    20:00 +17°C° 0.1 mm 2 m/s 745 mmHg 91%
    21:00 +16°C° 0.1 mm 2 m/s 745 mmHg 92%
    22:00 +15°C° 0.1 mm 1 m/s 745 mmHg 93%
    23:00 +15°C° 0.1 mm 1 m/s 744 mmHg 93%

    Après-demain, 28 Mai, Mardi

    Heure Température Précipitation Vent Pression Humidité
    00:00 +15°C° 0.1 mm 1 m/s 744 mmHg 92%
    01:00 +14°C° 0.1 mm 1 m/s 744 mmHg 92%
    02:00 +14°C° 0.4 mm 1 m/s 743 mmHg 93%
    03:00 +14°C° 0.4 mm 2 m/s 743 mmHg 94%
    04:00 +14°C° 0.4 mm 2 m/s 743 mmHg 95%
    05:00 +14°C° 1.5 mm 2 m/s 743 mmHg 95%
    06:00 +13°C° 1.5 mm 2 m/s 743 mmHg 96%
    07:00 +13°C° 1.5 mm 2 m/s 743 mmHg 96%
    08:00 +13°C° 1.3 mm 3 m/s 743 mmHg 94%
    09:00 +13°C° 1.3 mm 3 m/s 743 mmHg 93%
    10:00 +13°C° 1.3 mm 3 m/s 744 mmHg 92%
    11:00 +13°C° 0.4 mm 3 m/s 744 mmHg 89%
    12:00 +14°C° 0.4 mm 3 m/s 744 mmHg 85%
    13:00 +14°C° 0.4 mm 3 m/s 744 mmHg 82%
    14:00 +16°C° 0.1 mm 2 m/s 744 mmHg 80%
    15:00 +16°C° 0.1 mm 2 m/s 744 mmHg 77%
    16:00 +16°C° 0.1 mm 2 m/s 744 mmHg 75%
    17:00 +16°C° 0 mm 1 m/s 744 mmHg 77%
    18:00 +15°C° 0 mm 1 m/s 744 mmHg 79%
    19:00 +14°C° 0 mm 0 m/s 745 mmHg 82%
    20:00 +13°C° 0 mm 0 m/s 745 mmHg 83%
    21:00 +12°C° 0 mm 0 m/s 745 mmHg 85%
    22:00 +13°C° 0 mm 1 m/s 746 mmHg 87%
    23:00 +12°C° 0 mm 1 m/s 746 mmHg 88%

    29 Mai, Mercredi

    Heure Température Précipitation Vent Pression Humidité
    00:00 +11°C° 0 mm 0 m/s 746 mmHg 88%
    01:00 +10°C° 0 mm 0 m/s 746 mmHg 89%
    02:00 +10°C° 0 mm 0 m/s 746 mmHg 89%
    03:00 +10°C° 0 mm 0 m/s 746 mmHg 89%
    04:00 +9°C° 0 mm 0 m/s 746 mmHg 89%
    05:00 +11°C° 0 mm 0 m/s 747 mmHg 86%
    06:00 +13°C° 0 mm 1 m/s 747 mmHg 83%
    07:00 +14°C° 0 mm 1 m/s 748 mmHg 81%
    08:00 +15°C° 0 mm 1 m/s 748 mmHg 78%
    09:00 +16°C° 0 mm 2 m/s 748 mmHg 75%
    10:00 +17°C° 0 mm 3 m/s 748 mmHg 72%
    11:00 +17°C° 0.1 mm 3 m/s 748 mmHg 68%
    12:00 +18°C° 0.1 mm 3 m/s 749 mmHg 64%
    13:00 +18°C° 0.1 mm 3 m/s 749 mmHg 60%
    14:00 +18°C° 0.1 mm 3 m/s 749 mmHg 59%
    15:00 +18°C° 0.1 mm 3 m/s 749 mmHg 58%
    16:00 +18°C° 0.1 mm 2 m/s 750 mmHg 58%
    17:00 +17°C° 0.1 mm 2 m/s 750 mmHg 65%
    18:00 +16°C° 0.1 mm 3 m/s 750 mmHg 72%
    19:00 +14°C° 0.1 mm 3 m/s 751 mmHg 79%
    20:00 +13°C° 0.1 mm 3 m/s 751 mmHg 84%
    21:00 +13°C° 0.1 mm 2 m/s 752 mmHg 89%
    22:00 +12°C° 0.1 mm 2 m/s 752 mmHg 94%
    23:00 +12°C° 0.1 mm 2 m/s 753 mmHg 94%

    30 Mai, Jeudi

    Heure Température Précipitation Vent Pression Humidité
    00:00 +10°C° 0.1 mm 2 m/s 753 mmHg 95%
    01:00 +10°C° 0.1 mm 2 m/s 753 mmHg 95%
    02:00 +10°C° 0.3 mm 2 m/s 753 mmHg 95%
    03:00 +9°C° 0.3 mm 2 m/s 754 mmHg 96%
    04:00 +9°C° 0.3 mm 2 m/s 754 mmHg 96%
    05:00 +9°C° 0.1 mm 2 m/s 754 mmHg 94%
    06:00 +11°C° 0.1 mm 1 m/s 755 mmHg 91%
    07:00 +11°C° 0.1 mm 1 m/s 755 mmHg 89%
    08:00 +12°C° 0.1 mm 1 m/s 755 mmHg 84%
    09:00 +13°C° 0.1 mm 2 m/s 755 mmHg 78%
    10:00 +15°C° 0.1 mm 2 m/s 756 mmHg 72%
    11:00 +15°C° 0.3 mm 2 m/s 756 mmHg 70%
    12:00 +16°C° 0.3 mm 2 m/s 755 mmHg 68%
    13:00 +16°C° 0.3 mm 2 m/s 755 mmHg 65%
    14:00 +17°C° 0 mm 2 m/s 755 mmHg 61%
    15:00 +17°C° 0 mm 2 m/s 755 mmHg 57%
    16:00 +18°C° 0 mm 2 m/s 755 mmHg 53%
    17:00 +17°C° 0 mm 2 m/s 755 mmHg 58%
    18:00 +18°C° 0 mm 1 m/s 755 mmHg 63%
    19:00 +15°C° 0 mm 0 m/s 755 mmHg 69%
    20:00 +15°C° 0 mm 1 m/s 755 mmHg 69%
    21:00 +14°C° 0 mm 1 m/s 756 mmHg 70%
    22:00 +14°C° 0 mm 2 m/s 756 mmHg 71%
    23:00 +13°C° 0 mm 2 m/s 756 mmHg 73%

    31 Mai, Vendredi

    Heure Température Précipitation Vent Pression Humidité
    00:00 +13°C° 0 mm 2 m/s 756 mmHg 76%
    01:00 +13°C° 0 mm 2 m/s 757 mmHg 79%
    02:00 +12°C° 0 mm 2 m/s 757 mmHg 84%
    03:00 +10°C° 0 mm 2 m/s 757 mmHg 88%
    04:00 +10°C° 0 mm 1 m/s 757 mmHg 93%
    05:00 +11°C° 0 mm 1 m/s 758 mmHg 90%
    06:00 +12°C° 0 mm 1 m/s 758 mmHg 88%
    07:00 +13°C° 0 mm 1 m/s 758 mmHg 85%
    08:00 +14°C° 0 mm 1 m/s 758 mmHg 80%
    09:00 +16°C° 0 mm 1 m/s 759 mmHg 75%
    10:00 +18°C° 0 mm 1 m/s 759 mmHg 70%
    11:00 +18°C° 0 mm 1 m/s 759 mmHg 71%
    12:00 +18°C° 0 mm 1 m/s 758 mmHg 72%
    13:00 +18°C° 0 mm 1 m/s 758 mmHg 74%
    14:00 +18°C° 0.1 mm 2 m/s 758 mmHg 72%
    15:00 +18°C° 0.1 mm 2 m/s 758 mmHg 70%
    16:00 +19°C° 0.1 mm 2 m/s 758 mmHg 69%
    17:00 +19°C° 0 mm 2 m/s 758 mmHg 73%
    18:00 +19°C° 0 mm 1 m/s 757 mmHg 77%
    19:00 +19°C° 0 mm 1 m/s 757 mmHg 81%
    20:00 +18°C° 0.1 mm 1 m/s 758 mmHg 83%
    21:00 +16°C° 0.1 mm 1 m/s 758 mmHg 86%
    22:00 +15°C° 0.1 mm 1 m/s 758 mmHg 89%
    23:00 +15°C° 0.3 mm 2 m/s 758 mmHg 90%
    Voir plus